DELTA 1 DEB, 21289

Orbit data source: Space-Track

DELTA 1 DEB, 21289 is space debris in SSO originally from a launch on Thu, 12 Jun 1975 UTC launched from the Air Force Western Test Range (AFWTR). Debris objects in space refer to the collection of defunct objects orbiting the Earth. Examples of debris include non-operational satellites, rocket bodies, and fragments generated from explosions, collisions, or faulty payload assembly.

Loading next visibility...
DELTA 1 DEB details
Identifier
21289, 1975-052AA
Orbit
SSO
Last TLE update15 hours ago
Origin
Flag of USGSFC (US)
ManufacturerUnknown
MissionSpacecraft
Bus & MotorUnknown
MassUnknown
Launch date (UTC)
1975-06-12 (50 years ago)
Launch vehicleUnknown
Launch site
Air Force Western Test Range (AFWTR)
Object type
Payload
Rocket body
Debris
Shape & HBRUnknown
Radar Cross SectionSmall (<0.1 m²)

Expand to show TLE details & history

TLE from 15 hours ago
0 DELTA 1 DEB
1 21289U 75052AA  24360.94955331  .00000196  00000-0  67517-3 0  9990
2 21289  99.8939  24.9683 0247998 146.3151 286.6463 12.99877130594610
Epoch: 2024-12-25T22:47Z
Definitive object data (Epoch: 2024-12-25T22:47:21.405Z)
Latitude68.04785°
Longitude-77.30949°
Altitude1,224.322 km
Speed7.272 km/s
True Right ascension23h 57m 51s
True Declination67° 56' 08"
Sunlit
Object was in daylight at TLE epoch
Visualization TLE readout
Latitude73.82027°
Longitude-87.97895°
Altitude1,199.774 km
Speed7.296 km/s
Apparent Right ascension00h 27m 07s
Apparent Declination24° 52' 34"
Sunlit
Object is in daylight
Visualization observer readout
Local Sidereal Time12:57:47
Azimuth7.664° NNE
Elevation-24.814°
Doppler factor1
Orbital elements
Apogee altitude1,449.371 km
Perigee altitude1,070.525 km
Semi-major axis7,638.085 km
Eccentricity0.0247998
Inclination99.8939°
RAAN24.9683°
Arg. of periapsis146.3151°
True anomaly283.90022°
Mean anomaly286.6463°
Eccentric anomaly285.27558°
Mean motion3.25137 °/min
BSTAR0.00067517
Orbital period110.72 mins
Loading maneuver chart data...
Loading historical data...
Loading historical data...
Loading historical data...
Loading historical data...
Loading historical data...
Loading historical data...
Loading historical data...

DELTA 1 DEB Visibility forecast

Observer location: undefined°, undefined

Span
Click to sort rows by Start time (UTC) header in descending order
Start Az.
Max El. time (UTC)
Max El. Az.
Max El.
End time (UTC)
End Az.
10 mins2024-12-26 13:50:05.151Z37.459° NE2024-12-26 13:55:05.151Z94.728° ESE28.527°2024-12-26 14:00:05.151Z154.901° SSE
10 mins2024-12-26 15:40:05.151Z352.521° N2024-12-26 15:44:05.151Z301.005° NW32.165°2024-12-26 15:50:05.151Z229.196° WSW
11 mins2024-12-27 00:26:05.151Z114.903° SE2024-12-27 00:31:05.151Z68.859° E26.9°2024-12-27 00:37:05.151Z7.894° NNE
13 mins2024-12-27 02:14:05.151Z185.031° SSW2024-12-27 02:20:05.151Z253.076° W39.64°2024-12-27 02:27:05.151Z335.146° NNW
|